Change the Weather History Date:

Tuesday, October 11, 2011

  Actual Average Record
Temperature  
Mean Temperature 79 °F 77 °F  
Max Temperature 88 °F 87 °F 97 °F (1894)
Min Temperature 69 °F 68 °F 49 °F (1990)
Degree Days  
Heating Degree Days 0 0  
Month to date heating degree days 0 0  
Since 1 July heating degree days 0 0  
Cooling Degree Days 14 12  
Month to date cooling degree days 162 145  
Year to date cooling degree days 4149 3556  
Growing Degree Days 28 (Base 50)    
Moisture  
Dew Point 70 °F    
Average Humidity 79    
Maximum Humidity 100    
Minimum Humidity 57    
Precipitation  
Precipitation 0.00 in 0.13 in 5.60 in (1887)
Month to date precipitation 0.98 1.57  
Year to date precipitation 15.57 22.30  
Sea Level Pressure  
Sea Level Pressure 29.87 in    
Wind  
Wind Speed 5 mph (NE)    
Max Wind Speed 14 mph    
Max Gust Speed 20 mph    
Visibility 10 miles    
Events      
T = Trace of Precipitation, MM = Missing Value Source: NWS Daily Summary

Daily Weather History Graph

Daily Weather History Graph

Search for Another Location

Airport or City:

Trip Planner

Search our weather history database for the weather conditions in past years. The results will help you decide how hot, cold, wet, or windy it might be!

Date:

Astronomy

Oct. 11, 2011 Rise Set
Actual Time 7:26 AM CDT 7:06 PM CDT
Civil Twilight 7:03 AM CDT 7:29 PM CDT
Nautical Twilight 6:36 AM CDT 7:55 PM CDT
Astronomical Twilight 6:09 AM CDT 8:22 PM CDT
Moon 6:44 PM CDT (10/11) 7:02 AM CDT (10/11)
Length of Visible Light 12h 25m
Length of Day
11h 39m
Full, 100% of the Moon is Illuminated
Oct 11
Full
Oct 11
Full
Oct 19
Last Quarter
Oct 26
New
Nov 2
First Quarter

Hourly Weather History & Observations

Time (CDT) Temp. Heat Index Dew Point Humidity Pressure Visibility Wind Dir Wind Speed Gust Speed Precip Events Conditions
12:53 AM 72.0 °F - 69.1 °F 91% 29.90 in 10.0 mi NNW 4.6 mph - N/A   Clear
1:53 AM 71.1 °F - 69.1 °F 93% 29.88 in 10.0 mi NW 3.5 mph - N/A   Clear
2:53 AM 72.0 °F - 70.0 °F 93% 29.87 in 10.0 mi Calm Calm - N/A   Clear
3:53 AM 72.0 °F - 70.0 °F 93% 29.87 in 10.0 mi NNW 3.5 mph - N/A   Partly Cloudy
4:53 AM 71.1 °F - 69.1 °F 93% 29.86 in 9.0 mi Calm Calm - N/A   Clear
5:53 AM 70.0 °F - 69.1 °F 97% 29.87 in 8.0 mi Calm Calm - N/A   Clear
6:53 AM 70.0 °F - 69.1 °F 97% 29.88 in 8.0 mi Calm Calm - N/A   Clear
7:53 AM 71.1 °F - 69.1 °F 93% 29.88 in 7.0 mi NNW 3.5 mph - N/A   Clear
8:53 AM 75.9 °F - 72.0 °F 87% 29.90 in 10.0 mi NNW 3.5 mph - N/A   Clear
9:53 AM 82.0 °F 87.4 °F 73.0 °F 74% 29.91 in 10.0 mi North 4.6 mph - N/A   Partly Cloudy
10:53 AM 84.9 °F 90.1 °F 71.1 °F 63% 29.91 in 10.0 mi NNE 6.9 mph - N/A   Partly Cloudy
11:53 AM 86.0 °F 90.7 °F 70.0 °F 59% 29.90 in 10.0 mi NE 10.4 mph 16.1 mph N/A   Partly Cloudy
12:53 PM 86.0 °F 91.5 °F 71.1 °F 61% 29.88 in 10.0 mi NNE 10.4 mph 16.1 mph N/A   Clear
1:53 PM 84.9 °F 89.4 °F 70.0 °F 61% 29.86 in 10.0 mi ENE 9.2 mph 19.6 mph N/A   Partly Cloudy
2:53 PM 86.0 °F 91.5 °F 71.1 °F 61% 29.84 in 10.0 mi ENE 6.9 mph - N/A   Mostly Cloudy
3:53 PM 86.0 °F 90.7 °F 70.0 °F 59% 29.83 in 10.0 mi ENE 10.4 mph - N/A   Partly Cloudy
4:53 PM 84.0 °F 88.4 °F 70.0 °F 63% 29.82 in 10.0 mi East 9.2 mph - N/A   Partly Cloudy
5:53 PM 82.9 °F 87.0 °F 70.0 °F 65% 29.83 in 10.0 mi ENE 9.2 mph - N/A   Partly Cloudy
6:53 PM 81.0 °F 84.4 °F 70.0 °F 69% 29.83 in 10.0 mi East 6.9 mph - N/A   Clear
7:53 PM 79.0 °F - 70.0 °F 74% 29.84 in 10.0 mi NE 6.9 mph - N/A   Partly Cloudy
8:53 PM 78.1 °F - 70.0 °F 76% 29.85 in 10.0 mi East 3.5 mph - N/A   Clear
9:53 PM 78.1 °F - 70.0 °F 76% 29.86 in 10.0 mi Calm Calm - N/A   Clear
10:53 PM 77.0 °F - 71.1 °F 82% 29.86 in 10.0 mi SE 4.6 mph - N/A   Clear
11:53 PM 77.0 °F - 70.0 °F 79% 29.85 in 10.0 mi ESE 4.6 mph - N/A   Clear